Flag for U.S.A. Weather past 2 weeks in Burbank, California, U.S.A.

Now
74 °F

Partly sunny.


Feels Like: 76 °F
Forecast: 69 / 90 °F
Wind: 6 mph from Southeast

Location: Burbank-Glendale-Pasadena Airport

Current Time: Jul 30, 2015 at 9:52:16 AM

Latest Report: Jul 30, 2015 at 8:53 AM


Visibility: 10 mi

Pressure: 29.98 "Hg

Humidity: 69%

Dew point: 63 °F

Location of BurbankLocation

Historic Weather in Burbank — Graph

°F

Burbank temperature yesterday

Maximum temperature yesterday: 88 °F (at 1:53 PM)
Minimum temperature yesterday: 66 °F (at 5:53 AM)
Average temperature yesterday: 75 °F

Past Weeks' High & Low Weather Summary

 TemperatureHumidityPressure
High91 °F (Jul 25, 3:53 PM)90% (Jul 18, 9:53 PM)30.07 "Hg (Jul 18, 9:53 PM)
Low63 °F (Jul 17, 4:53 AM)21% (Jul 17, 3:53 PM)29.75 "Hg (Jul 17, 5:53 PM)
Average75 °F64%29.90 "Hg
* Reported Jul 15 7:53 AM — Jul 30 7:53 AM, Burbank, Weather by CustomWeather, © 2015

Note: Actual official high and low records may vary slightly from our data, if they occured in-between our weather recording intervals... More about our weather records

Advertising

Burbank weather history for previous 24 hours

 ConditionsComfort  
Time TempWeatherWind HumidityBarometerVisibility
7:53 AM
Thu, Jul 30
73 °FPartly sunny.3 mph71%29.96 "Hg10 mi
6:53 AM72 °FPassing clouds.No wind71%29.94 "Hg10 mi
5:53 AM71 °FPassing clouds.6 mph73%29.94 "Hg10 mi
4:53 AM72 °FClear.No wind71%29.92 "Hg10 mi
3:53 AM73 °FClear.3 mph69%29.92 "Hg10 mi
2:53 AM73 °FClear.No wind69%29.93 "Hg10 mi
1:53 AM72 °FClear.No wind71%29.94 "Hg10 mi
12:53 AM72 °FClear.3 mph71%29.95 "Hg10 mi
11:53 PM
Wed, Jul 29
71 °FClear.5 mph73%29.95 "Hg10 mi
10:53 PM73 °FClear.9 mph66%29.94 "Hg10 mi
9:53 PM73 °FClear.7 mph66%29.94 "Hg10 mi
8:53 PM73 °FSunny.8 mph66%29.93 "Hg10 mi
7:53 PM75 °FSunny.10 mph62%29.89 "Hg10 mi
6:53 PM82 °FSunny.12 mph49%29.87 "Hg10 mi
5:53 PM83 °FSunny.9 mph50%29.85 "Hg10 mi
4:53 PM87 °FSunny.8 mph43%29.85 "Hg10 mi
3:53 PM86 °FSunny.7 mph45%29.85 "Hg10 mi
2:53 PM87 °FSunny.10 mph43%29.88 "Hg10 mi
1:53 PM88 °FSunny.8 mph42%29.88 "Hg10 mi
12:53 PM85 °FSunny.5 mph46%29.90 "Hg10 mi
11:53 AM82 °FSunny.10 mph51%29.91 "Hg10 mi
10:53 AM78 °FSunny.7 mph58%29.91 "Hg8 mi
9:53 AM73 °FSunny.No wind69%29.91 "Hg8 mi
9:02 AM70 °FPartly sunny.5 mph78%29.95 "Hg5 mi
Weather by CustomWeather, © 2015

See weather overviewHow to use our weather pages